Location: Powder Track
(41.8531°N, 72.3584°W)
Time: 18:10:18
(UTC+00:00)

Vanguard 1 Rocket - Pass Details

Date: 14 August 2021
Orbit: 650 x 4226 km, 34.3° (Epoch: 20 September)

Event Time Altitude Azimuth Distance (km) Brightness Sun altitude
Rises 10:06:29 0° 220° (SW) 7,633 11.6 0.9°
Reaches altitude 10° 10:11:34 10° 215° (SW) 6,928 11.4 1.8°
Maximum altitude 10:34:58 49° 149° (SSE) 4,882 11.3 5.9°
Drops below altitude 10° 10:55:49 10° 84° (E) 6,304 15.0 9.7°
Sets 11:00:04 0° 79° (E) 6,944 14.2 10.5°
